When you browse on this site, cookies collect data to enhance your experience and personalize the content and advertising you see.
Visit our Privacy Policy to learn more. By continuing to use the site, you agree to this use of cookies and data.
  • In Portugal
  • List of Countries
  • For 7 days
  • Water Temperature
  • Satellite Maps
  • Weather Map
  • Weather Widgets
  • user-avatar
    Login

    Hourly Weather Lakun

    Today, 20 June, Thursday

    Time Temperature Precipitation Wind Pressure Humidity
    00:00 +14°C° 0 mm 1 mps 632 mmHg 86%
    01:00 +14°C° 0 mm 1 mps 631 mmHg 85%
    02:00 +14°C° 0 mm 1 mps 631 mmHg 85%
    03:00 +13°C° 0 mm 1 mps 631 mmHg 85%
    04:00 +15°C° 0 mm 1 mps 631 mmHg 83%
    05:00 +16°C° 0 mm 1 mps 632 mmHg 82%
    06:00 +18°C° 0 mm 1 mps 632 mmHg 80%
    07:00 +20°C° 0.2 mm 1 mps 633 mmHg 75%
    08:00 +20°C° 0.2 mm 2 mps 633 mmHg 71%
    09:00 +21°C° 0 mm 2 mps 634 mmHg 67%
    10:00 +21°C° 1.2 mm 2 mps 634 mmHg 68%
    11:00 +21°C° 1.2 mm 2 mps 633 mmHg 69%
    12:00 +21°C° 1.2 mm 2 mps 633 mmHg 70%
    13:00 +21°C° 1.1 mm 2 mps 633 mmHg 69%
    14:00 +21°C° 1.1 mm 2 mps 633 mmHg 68%
    15:00 +21°C° 0 mm 2 mps 633 mmHg 66%
    16:00 +21°C° 0.4 mm 2 mps 632 mmHg 68%
    17:00 +20°C° 0.4 mm 2 mps 632 mmHg 70%
    18:00 +20°C° 0.4 mm 2 mps 632 mmHg 72%
    19:00 +19°C° 0.2 mm 1 mps 632 mmHg 75%
    20:00 +18°C° 0.2 mm 1 mps 631 mmHg 78%
    21:00 +14°C° 0.2 mm 0 mps 631 mmHg 81%
    22:00 +15°C° 0 mm 1 mps 631 mmHg 81%
    23:00 +15°C° 0 mm 1 mps 631 mmHg 81%

    Tomorrow, 21 June, Friday

    Time Temperature Precipitation Wind Pressure Humidity
    00:00 +14°C° 0 mm 1 mps 631 mmHg 81%
    01:00 +14°C° 0 mm 1 mps 631 mmHg 80%
    02:00 +14°C° 0 mm 1 mps 631 mmHg 80%
    03:00 +14°C° 0 mm 1 mps 630 mmHg 80%
    04:00 +15°C° 0 mm 1 mps 631 mmHg 79%
    05:00 +16°C° 0 mm 1 mps 631 mmHg 78%
    06:00 +18°C° 0 mm 1 mps 632 mmHg 78%
    07:00 +19°C° 0.1 mm 1 mps 633 mmHg 72%
    08:00 +19°C° 0.1 mm 2 mps 633 mmHg 67%
    09:00 +20°C° 0.1 mm 2 mps 634 mmHg 62%
    10:00 +21°C° 0.5 mm 2 mps 634 mmHg 63%
    11:00 +21°C° 0.5 mm 2 mps 634 mmHg 63%
    12:00 +21°C° 0.5 mm 2 mps 634 mmHg 64%
    13:00 +21°C° 0.8 mm 2 mps 634 mmHg 65%
    14:00 +20°C° 0.8 mm 2 mps 634 mmHg 67%
    15:00 +20°C° 0.8 mm 2 mps 634 mmHg 69%
    16:00 +20°C° 0.3 mm 2 mps 633 mmHg 72%
    17:00 +19°C° 0.3 mm 2 mps 633 mmHg 75%
    18:00 +18°C° 0.3 mm 2 mps 633 mmHg 78%
    19:00 +17°C° 0 mm 2 mps 633 mmHg 81%
    20:00 +15°C° 0 mm 1 mps 632 mmHg 83%
    21:00 +14°C° 0 mm 1 mps 632 mmHg 86%
    22:00 +14°C° 0 mm 1 mps 632 mmHg 86%
    23:00 +13°C° 0 mm 1 mps 632 mmHg 85%

    Day after tomorrow, 22 June, Saturday

    Time Temperature Precipitation Wind Pressure Humidity
    00:00 +13°C° 0 mm 1 mps 632 mmHg 85%
    01:00 +13°C° 0 mm 1 mps 632 mmHg 83%
    02:00 +13°C° 0 mm 1 mps 632 mmHg 81%
    03:00 +13°C° 0 mm 1 mps 632 mmHg 79%
    04:00 +14°C° 0 mm 1 mps 633 mmHg 77%
    05:00 +16°C° 0 mm 1 mps 633 mmHg 74%
    06:00 +18°C° 0 mm 1 mps 634 mmHg 72%
    07:00 +19°C° 0 mm 1 mps 635 mmHg 68%
    08:00 +21°C° 0 mm 1 mps 635 mmHg 64%
    09:00 +22°C° 0 mm 1 mps 636 mmHg 60%
    10:00 +23°C° 0.9 mm 2 mps 636 mmHg 62%
    11:00 +23°C° 0.9 mm 2 mps 636 mmHg 65%
    12:00 +23°C° 0.9 mm 2 mps 636 mmHg 67%
    13:00 +23°C° 1.4 mm 2 mps 636 mmHg 68%
    14:00 +23°C° 1.4 mm 2 mps 635 mmHg 68%
    15:00 +23°C° 1.4 mm 2 mps 635 mmHg 69%
    16:00 +23°C° 1 mm 2 mps 635 mmHg 72%
    17:00 +21°C° 1 mm 2 mps 635 mmHg 74%
    18:00 +22°C° 1 mm 1 mps 634 mmHg 77%
    19:00 +20°C° 0.2 mm 1 mps 634 mmHg 79%
    20:00 +18°C° 0.2 mm 2 mps 634 mmHg 81%
    21:00 +16°C° 0.2 mm 2 mps 634 mmHg 82%
    22:00 +16°C° 0 mm 2 mps 634 mmHg 81%
    23:00 +16°C° 0 mm 2 mps 634 mmHg 81%

    23 June, Sunday

    Time Temperature Precipitation Wind Pressure Humidity
    00:00 +15°C° 0 mm 2 mps 633 mmHg 80%
    01:00 +15°C° 0 mm 2 mps 633 mmHg 79%
    02:00 +15°C° 0 mm 2 mps 633 mmHg 78%
    03:00 +15°C° 0 mm 2 mps 633 mmHg 76%
    04:00 +16°C° 0 mm 2 mps 634 mmHg 74%
    05:00 +18°C° 0 mm 2 mps 635 mmHg 72%
    06:00 +20°C° 0 mm 1 mps 635 mmHg 70%
    07:00 +22°C° 0 mm 1 mps 636 mmHg 63%
    08:00 +23°C° 0 mm 1 mps 636 mmHg 57%
    09:00 +25°C° 0 mm 1 mps 637 mmHg 51%
    10:00 +25°C° 0.1 mm 2 mps 637 mmHg 52%
    11:00 +26°C° 0.1 mm 2 mps 637 mmHg 53%
    12:00 +26°C° 0.1 mm 3 mps 637 mmHg 54%
    13:00 +26°C° 0.3 mm 3 mps 637 mmHg 53%
    14:00 +26°C° 0.3 mm 2 mps 636 mmHg 53%
    15:00 +26°C° 0.3 mm 2 mps 636 mmHg 53%
    16:00 +26°C° 0.1 mm 2 mps 636 mmHg 57%
    17:00 +25°C° 0.1 mm 2 mps 636 mmHg 61%
    18:00 +24°C° 0.1 mm 1 mps 635 mmHg 65%
    19:00 +21°C° 0 mm 2 mps 635 mmHg 68%
    20:00 +20°C° 0 mm 2 mps 634 mmHg 70%
    21:00 +18°C° 0 mm 2 mps 634 mmHg 73%
    22:00 +17°C° 0 mm 2 mps 634 mmHg 72%
    23:00 +17°C° 0 mm 2 mps 634 mmHg 71%

    24 June, Monday

    Time Temperature Precipitation Wind Pressure Humidity
    00:00 +17°C° 0 mm 2 mps 634 mmHg 70%
    01:00 +17°C° 0 mm 2 mps 634 mmHg 69%
    02:00 +17°C° 0 mm 2 mps 634 mmHg 67%
    03:00 +17°C° 0 mm 2 mps 634 mmHg 66%
    04:00 +18°C° 0 mm 2 mps 634 mmHg 66%
    05:00 +19°C° 0 mm 2 mps 635 mmHg 65%
    06:00 +22°C° 0 mm 1 mps 635 mmHg 64%
    07:00 +23°C° 0 mm 1 mps 636 mmHg 59%
    08:00 +25°C° 0 mm 1 mps 636 mmHg 53%
    09:00 +27°C° 0 mm 1 mps 637 mmHg 48%
    10:00 +27°C° 0.2 mm 2 mps 637 mmHg 49%
    11:00 +28°C° 0.2 mm 2 mps 637 mmHg 50%
    12:00 +28°C° 0.2 mm 3 mps 637 mmHg 51%
    13:00 +28°C° 0.6 mm 3 mps 636 mmHg 52%
    14:00 +28°C° 0.6 mm 2 mps 636 mmHg 53%
    15:00 +27°C° 0.6 mm 2 mps 636 mmHg 54%
    16:00 +27°C° 0.4 mm 2 mps 635 mmHg 58%
    17:00 +26°C° 0.4 mm 2 mps 635 mmHg 62%
    18:00 +25°C° 0.4 mm 1 mps 635 mmHg 66%
    19:00 +23°C° 0.1 mm 1 mps 635 mmHg 69%
    20:00 +21°C° 0.1 mm 1 mps 634 mmHg 72%
    21:00 +20°C° 0.1 mm 1 mps 634 mmHg 74%
    22:00 +18°C° 0.1 mm 2 mps 634 mmHg 72%
    23:00 +18°C° 0.1 mm 2 mps 634 mmHg 69%

    25 June, Tuesday

    Time Temperature Precipitation Wind Pressure Humidity
    00:00 +18°C° 0.1 mm 2 mps 634 mmHg 67%
    01:00 +17°C° 0.1 mm 2 mps 634 mmHg 65%
    02:00 +17°C° 0.1 mm 2 mps 634 mmHg 64%
    03:00 +18°C° 0.1 mm 1 mps 634 mmHg 62%
    04:00 +19°C° 0 mm 1 mps 634 mmHg 62%
    05:00 +20°C° 0 mm 1 mps 635 mmHg 61%
    06:00 +21°C° 0 mm 1 mps 635 mmHg 61%
    07:00 +23°C° 0 mm 1 mps 636 mmHg 56%
    08:00 +24°C° 0 mm 2 mps 636 mmHg 51%
    09:00 +26°C° 0 mm 2 mps 637 mmHg 46%
    10:00 +26°C° 0.1 mm 2 mps 637 mmHg 47%
    11:00 +27°C° 0.1 mm 3 mps 637 mmHg 48%
    12:00 +27°C° 0.1 mm 3 mps 637 mmHg 50%
    13:00 +27°C° 0.6 mm 3 mps 637 mmHg 50%
    14:00 +27°C° 0.6 mm 3 mps 637 mmHg 51%
    15:00 +27°C° 0.6 mm 3 mps 636 mmHg 51%
    16:00 +26°C° 0.4 mm 2 mps 636 mmHg 56%
    17:00 +25°C° 0.4 mm 2 mps 636 mmHg 61%
    18:00 +24°C° 0.4 mm 1 mps 636 mmHg 65%
    19:00 +22°C° 0.1 mm 1 mps 635 mmHg 67%
    20:00 +20°C° 0.1 mm 1 mps 635 mmHg 69%
    21:00 +18°C° 0.1 mm 1 mps 634 mmHg 71%
    22:00 +18°C° 0 mm 1 mps 634 mmHg 72%
    23:00 +16°C° 0 mm 1 mps 634 mmHg 73%
    Show more